Volver al catálogo

STARLINK-11465

ActivoComunicacionesVLEO
NORAD 62057·PAYLOAD·🇺🇸 United States

Lanzado Nov 24, 2024 desde Vandenberg Space Force Base

Loading…

Próximos Pases (próximas 24 horas)

TLE

ActualizadoSource: CelesTrak SupGP

Época: Sep 14, 2026, 15:22 UTC

1 62057C 24217A   26257.64076389 -.00024782  00000+0 -20420-3 0  2573
2 62057  53.1576 219.5885 0001135  96.9791 250.2424 15.69714884    11

Sigue STARLINK-11465 en tiempo real con AllMySat

Download on the App Store